Location: Bannatyne
(13.0833°N, 59.5333°W)
Time: 14:01:16
(UTC+00:00)

Cosmos 2369 Rocket - Pass Details

Date: 18 October 2019
Orbit: 830 x 851 km, 71.0° (Epoch: 13 November)

Event Time Altitude Azimuth Distance (km) Brightness Sun altitude
Rises 23:30:48 0° 186° (S) 3,402 5.5 -28.2°
Reaches altitude 10° 23:33:18 10° 181° (S) 2,465 4.7 -28.8°
Enters shadow 23:34:52 19° 176° (S) 1,907 4.0 -29.2°
